Location: Hylvaty SDH
(49.9612°N, 16.4057°E)
Time: 03:53:52
(UTC+01:00)

Tiros 1 despin weight - Pass Details

Date: 23 January 2021
Orbit: 593 x 642 km, 48.2° (Epoch: 24 February)

Event Time Altitude Azimuth Distance (km) Brightness Sun altitude
Rises 17:40:16 0° 270° (W) 2,865 ? -10.6°
Reaches altitude 10° 17:42:35 10° 268° (W) 1,953 ? -10.9°
Maximum altitude 17:47:02 70° 185° (S) 640 ? -11.6°
Enters shadow 17:50:44 14° 103° (ESE) 1,661 ? -12.2°
